Probability
0 0 0 0 0 0 0 0 0 0 0 0 0 3 6 10 6 6 6 6 10 6 10 16 19 26 23 26 26 13 26 19 19 29 26 26 26 19 16 23 29 23 19 19
0 0 0 0 0 0 0 0 0 0 0 0 0 0 3 13 10 3 6 6 6 3 10 19 23 35 32 35 29 26 26 29 29 32 29 29 23 26 26 29 26 29 26 29
0 0 0 0 0 0 0 0 0 0 0 0 0 3 3 10 6 6 3 6 6 6 10 23 23 32 29 32 39 35 35 39 42 39 35 35 29 29 29 35 32 29 29 35
0 0 0 0 0 0 0 0 0 0 0 0 0 0 3 3 6 6 6 6 6 13 13 19 26 32 32 32 42 42 39 35 42 45 39 35 32 35 29 29 35 35 29 39
0 0 0 0 0 0 0 0 0 0 0 0 0 0 0 0 6 10 10 10 6 10 19 19 26 29 32 35 48 45 48 48 48 45 45 42 35 39 39 35 35 29 32 32
0 0 0 0 0 0 0 0 0 0 0 0 0 0 0 0 10 10 10 10 10 13 16 19 26 23 26 35 42 48 48 45 48 45 45 42 45 45 45 39 35 32 35 35
0 0 0 0 0 0 0 0 0 0 0 0 0 3 3 6 10 13 13 10 10 10 16 19 16 19 26 32 42 45 48 52 42 45 39 32 42 35 42 39 35 35 29 35
0 0 0 0 0 0 0 0 0 0 0 0 0 3 3 6 6 10 13 10 16 16 13 16 16 23 26 32 35 42 39 45 42 45 35 29 35 32 32 35 35 29 19 23
0 0 0 0 0 0 0 0 0 0 0 0 0 3 6 10 13 16 19 26 23 23 16 19 23 19 26 32 29 42 39 42 35 32 35 29 32 39 42 35 35 26 19 23
0 0 0 0 0 0 0 0 0 0 0 0 0 6 6 13 10 16 16 19 19 19 19 19 23 19 29 29 32 32 35 39 32 26 39 29 35 32 26 29 26 26 32 29
0 0 0 0 0 0 0 0 0 0 0 0 0 0 3 6 13 13 16 16 16 23 23 16 19 16 23 26 26 23 26 29 32 35 35 39 35 32 32 32 29 29 29 29
0 0 0 0 0 0 0 0 0 0 0 0 0 0 6 10 10 13 16 13 16 16 16 13 16 16 19 19 19 23 29 35 39 39 32 26 23 23 32 32 29 23 23 32
0 0 0 0 0 0 0 0 0 0 0 0 0 0 6 10 10 13 13 13 13 16 16 16 13 13 16 23 26 26 29 35 39 39 29 19 19 23 23 19 26 23 23 26
0 0 0 0 0 0 0 0 0 0 3 3 3 6 6 6 6 6 6 6 6 19 26 23 23 19 16 19 19 29 29 35 35 39 32 29 29 26 26 23 23 26 19 23
0 0 0 0 0 0 0 0 0 0 3 3 0 6 6 10 6 3 3 6 6 16 26 26 23 23 19 23 26 26 32 29 35 32 32 29 29 29 26 23 19 19 26 26
0 0 0 0 0 0 0 0 0 3 3 0 0 3 3 6 6 6 3 6 10 16 13 16 23 19 23 23 29 29 32 29 32 32 32 29 29 29 26 23 16 19 23 23
0 0 0 0 0 0 0 0 0 0 3 6 3 3 3 6 6 6 10 13 16 23 19 13 23 23 19 19 26 26 26 29 23 26 26 26 32 26 23 19 19 13 13 13
0 0 0 0 0 0 0 0 0 0 0 3 3 3 3 10 6 6 3 13 16 13 23 23 23 19 23 26 26 26 29 32 29 29 29 26 29 29 26 19 13 13 10 10
0 0 0 0 0 0 0 0 0 0 0 3 3 3 10 6 6 6 6 13 13 13 19 26 29 29 29 26 29 32 32 32 32 29 26 29 29 29 26 19 13 13 13 13
0 0 0 0 0 0 0 0 0 0 0 0 0 6 10 3 6 6 6 10 10 19 26 29 29 32 32 29 26 32 32 35 35 35 29 29 29 26 19 19 19 16 13 13
0 0 0 0 0 0 0 0 0 0 0 0 3 10 13 6 6 6 13 16 19 26 32 29 32 32 29 32 29 32 29 29 32 32 29 29 23 23 23 19 16 16 16 13
0 0 0 0 0 0 0 0 0 0 0 0 3 3 6 10 10 10 16 23 26 32 39 29 32 32 32 32 29 29 29 26 26 26 23 23 19 19 19 13 13 13 13 13
0 0 0 0 0 0 3 3 0 0 0 0 6 6 6 6 6 13 13 23 23 29 32 29 29 29 29 29 26 26 26 26 26 23 19 16 16 16 13 13 13 13 13 13
0 0 0 0 0 3 3 3 0 0 3 3 6 13 10 13 16 13 16 16 23 19 29 26 23 26 19 23 23 23 26 23 19 16 13 10 10 10 6 6 10 10 10 10
0 0 0 0 3 3 3 3 3 0 3 3 6 16 13 19 13 13 16 19 19 23 23 23 23 23 19 16 19 19 19 16 13 13 13 10 10 3 3 3 3 3 3 3
0 0 0 0 0 0 3 3 3 0 3 10 10 13 13 10 13 13 13 13 19 19 16 13 13 13 10 10 13 19 16 13 10 6 6 6 6 3 3 3 0 0 0 0
Height
5929 5930 5930 5931 5931 5932 5932 5932 5932 5932 5931 5930 5929 5929 5929 5928 5928 5927 5925 5925 5923 5922 5921 5920 5920 5919 5918 5918 5917 5916 5916 5915 5915 5914 5913 5913 5912 5911 5911 5910 5910 5909 5908 5908
5928 5928 5929 5929 5930 5930 5931 5931 5931 5931 5929 5929 5928 5928 5927 5927 5927 5926 5925 5924 5924 5922 5921 5920 5920 5920 5919 5918 5917 5916 5915 5915 5914 5914 5913 5913 5912 5911 5911 5910 5909 5909 5908 5907
5926 5928 5927 5927 5928 5929 5929 5929 5929 5929 5928 5927 5927 5927 5926 5926 5925 5924 5924 5923 5923 5922 5921 5920 5920 5920 5919 5917 5916 5915 5915 5914 5914 5913 5913 5912 5911 5911 5910 5909 5908 5908 5907 5906
5924 5925 5926 5926 5926 5927 5928 5928 5928 5927 5927 5927 5927 5925 5925 5924 5924 5923 5923 5922 5921 5921 5920 5920 5919 5919 5918 5917 5916 5915 5914 5913 5913 5912 5911 5911 5910 5909 5909 5908 5907 5906 5905 5904
5922 5923 5924 5924 5924 5925 5927 5927 5926 5926 5925 5926 5925 5925 5925 5922 5922 5922 5921 5921 5921 5920 5920 5919 5918 5918 5917 5916 5915 5914 5913 5912 5912 5911 5910 5910 5909 5908 5907 5906 5905 5904 5903 5902
5919 5920 5921 5922 5923 5924 5925 5925 5925 5924 5924 5924 5924 5923 5923 5921 5920 5920 5920 5920 5919 5919 5918 5918 5917 5916 5916 5915 5913 5913 5912 5911 5910 5909 5909 5908 5907 5906 5905 5904 5903 5902 5901 5900
5916 5917 5919 5920 5921 5922 5922 5923 5923 5922 5922 5922 5922 5920 5921 5919 5919 5918 5918 5917 5917 5916 5916 5915 5915 5913 5913 5913 5912 5911 5910 5909 5908 5907 5907 5906 5905 5904 5903 5902 5901 5900 5898 5897
5913 5915 5916 5917 5918 5918 5919 5920 5921 5920 5920 5920 5919 5918 5918 5917 5916 5916 5915 5914 5913 5913 5912 5912 5912 5911 5910 5910 5910 5909 5908 5907 5906 5905 5904 5903 5902 5901 5900 5899 5898 5896 5895 5894
5910 5912 5914 5914 5915 5916 5916 5917 5917 5918 5917 5917 5916 5916 5915 5914 5913 5913 5912 5912 5911 5910 5910 5909 5909 5908 5908 5907 5906 5906 5905 5904 5903 5902 5901 5900 5899 5898 5897 5895 5894 5893 5891 5890
5906 5908 5910 5911 5911 5912 5913 5914 5914 5914 5914 5913 5913 5912 5912 5912 5910 5910 5909 5909 5909 5908 5907 5906 5905 5905 5904 5903 5903 5902 5901 5901 5900 5898 5897 5896 5895 5894 5893 5891 5890 5889 5888 5886
5900 5903 5906 5906 5907 5908 5909 5909 5910 5910 5910 5910 5909 5911 5909 5908 5907 5906 5906 5906 5906 5905 5904 5903 5901 5901 5900 5900 5899 5898 5898 5897 5896 5895 5894 5893 5891 5890 5888 5887 5885 5884 5883 5882
5895 5897 5899 5902 5903 5904 5904 5905 5905 5906 5906 5906 5905 5908 5905 5904 5903 5903 5903 5902 5902 5901 5900 5898 5896 5895 5895 5895 5894 5894 5894 5893 5892 5891 5890 5888 5887 5885 5884 5882 5880 5878 5877 5876
5890 5892 5893 5896 5899 5899 5899 5899 5900 5901 5901 5901 5901 5903 5900 5900 5899 5899 5898 5898 5898 5897 5895 5894 5892 5892 5891 5891 5890 5890 5889 5888 5887 5886 5885 5883 5882 5880 5879 5877 5875 5874 5872 5871
5884 5885 5888 5890 5892 5893 5893 5895 5895 5896 5896 5896 5896 5896 5896 5895 5895 5895 5894 5894 5893 5893 5891 5890 5890 5889 5888 5887 5886 5885 5884 5883 5882 5881 5880 5878 5877 5875 5873 5872 5870 5868 5866 5865
5877 5879 5881 5883 5885 5886 5888 5889 5890 5890 5891 5891 5891 5891 5891 5891 5890 5890 5890 5889 5888 5887 5887 5886 5885 5884 5883 5882 5881 5880 5878 5878 5876 5875 5874 5872 5871 5869 5868 5866 5864 5862 5860 5859
5871 5873 5875 5877 5878 5880 5881 5883 5884 5885 5885 5885 5885 5885 5886 5885 5885 5884 5884 5883 5882 5881 5880 5879 5878 5877 5877 5876 5875 5873 5872 5871 5870 5868 5867 5866 5864 5862 5861 5859 5857 5855 5853 5852
5864 5866 5868 5869 5871 5872 5874 5876 5877 5877 5878 5879 5878 5880 5879 5879 5878 5878 5877 5876 5876 5875 5873 5872 5871 5871 5870 5869 5868 5867 5865 5864 5863 5861 5860 5859 5857 5855 5854 5851 5850 5848 5846 5844
5856 5858 5859 5861 5864 5864 5868 5868 5868 5869 5870 5871 5871 5872 5872 5872 5871 5871 5870 5869 5868 5867 5867 5866 5865 5864 5863 5862 5861 5859 5857 5856 5855 5854 5852 5851 5849 5848 5846 5844 5842 5839 5837 5835
5848 5850 5851 5853 5854 5856 5859 5860 5861 5862 5862 5864 5864 5865 5865 5864 5864 5863 5863 5862 5861 5860 5859 5859 5858 5856 5855 5854 5852 5851 5849 5848 5847 5846 5844 5843 5841 5839 5837 5835 5833 5831 5829 5826
5839 5841 5843 5844 5846 5847 5851 5853 5853 5854 5854 5856 5856 5856 5857 5856 5856 5857 5855 5854 5853 5852 5851 5850 5849 5847 5846 5845 5843 5842 5841 5839 5838 5837 5835 5833 5832 5830 5828 5826 5824 5822 5820 5817
5830 5832 5833 5835 5836 5838 5842 5843 5845 5846 5847 5847 5847 5847 5848 5848 5848 5848 5846 5846 5845 5844 5842 5841 5840 5838 5837 5836 5835 5834 5832 5831 5829 5828 5826 5824 5822 5820 5818 5816 5814 5812 5810 5808
5820 5822 5824 5826 5828 5832 5833 5834 5836 5837 5837 5838 5838 5839 5839 5839 5839 5839 5838 5836 5835 5834 5834 5832 5831 5830 5829 5827 5825 5824 5823 5821 5820 5818 5817 5815 5812 5810 5808 5806 5804 5802 5800 5797
5811 5813 5815 5818 5821 5822 5823 5825 5826 5827 5828 5829 5830 5830 5830 5831 5831 5830 5828 5828 5827 5826 5825 5823 5822 5821 5819 5818 5816 5814 5813 5812 5810 5809 5807 5805 5802 5800 5798 5796 5794 5791 5789 5787
5802 5804 5806 5808 5809 5812 5814 5815 5816 5818 5819 5820 5821 5822 5821 5822 5822 5821 5820 5819 5818 5818 5816 5815 5813 5811 5809 5808 5806 5805 5804 5802 5800 5799 5797 5795 5792 5790 5787 5785 5783 5781 5778 5776
5793 5795 5796 5798 5801 5803 5805 5807 5808 5809 5810 5811 5812 5812 5812 5812 5812 5812 5811 5810 5809 5808 5806 5805 5804 5802 5801 5799 5798 5796 5794 5792 5790 5788 5787 5784 5781 5779 5777 5774 5772 5770 5768 5765
5784 5786 5787 5789 5792 5794 5796 5798 5799 5800 5801 5802 5802 5802 5802 5803 5803 5803 5802 5800 5799 5798 5797 5796 5794 5793 5792 5790 5788 5786 5784 5782 5780 5778 5776 5774 5771 5768 5766 5764 5762 5759 5757 5754
Wind_Speed
9 9 8 5 3 2 0 0 1 2 2 3 5 6 8 11 11 10 8 8 7 7 8 7 7 6 6 6 6 5 5 5 5 4 4 4 4 4 4 3 3 3 3 2
9 8 7 6 5 4 4 4 4 4 4 4 6 7 8 9 10 10 8 7 7 6 7 6 6 5 5 5 5 4 4 3 4 4 4 4 4 4 4 3 3 3 4 3
8 7 7 6 5 5 5 6 6 6 5 5 6 6 8 11 10 8 8 6 6 6 6 6 5 5 5 5 5 4 4 3 3 3 3 4 4 4 4 4 3 4 4 5
9 9 8 7 6 6 5 6 8 7 5 5 7 8 8 10 9 6 7 7 6 5 6 5 5 4 4 5 6 5 4 3 3 3 4 5 5 6 5 5 5 5 5 6
11 10 10 8 6 6 6 6 7 6 6 6 6 8 9 8 8 8 8 8 7 6 6 5 5 5 4 5 6 6 5 4 4 4 4 5 6 6 6 6 6 7 7 8
12 11 11 9 8 7 7 7 7 6 6 6 7 9 10 9 9 8 8 9 8 8 8 7 6 5 5 6 6 7 7 6 6 6 6 7 7 7 8 8 8 9 9 9
13 13 12 11 10 8 9 8 8 8 6 5 6 9 11 10 10 8 9 10 10 10 9 8 7 6 5 6 7 8 8 8 8 8 8 8 8 8 8 9 9 9 10 11
14 14 14 12 11 10 10 10 11 10 8 7 8 10 11 11 10 10 10 11 12 12 10 9 9 8 7 7 8 9 10 10 9 10 10 10 9 9 9 11 11 11 12 12
15 14 14 14 13 12 12 12 12 13 12 11 12 12 11 11 11 11 12 13 12 11 11 11 10 10 9 8 9 10 11 10 10 11 11 11 11 11 11 12 12 12 12 13
16 16 15 15 15 15 15 14 13 14 15 15 15 15 14 14 14 14 15 15 13 13 13 14 13 13 13 12 11 11 11 11 11 11 12 12 12 12 12 12 13 14 15 16
20 19 18 18 18 17 17 17 16 17 17 18 17 17 16 16 16 17 17 16 15 15 14 15 15 17 16 15 14 14 13 13 13 13 13 14 14 15 15 15 15 16 17 17
22 22 22 22 20 19 19 19 19 19 19 19 19 18 17 18 18 18 18 17 17 18 17 16 16 16 16 16 15 15 16 15 15 15 15 16 16 17 17 17 18 18 18 18
24 24 23 23 23 22 22 21 21 21 22 21 21 20 20 19 18 18 18 18 18 19 19 18 16 16 17 18 17 17 17 17 17 17 18 18 19 19 19 19 20 21 20 20
24 26 25 25 24 24 25 24 24 24 24 23 24 22 22 21 20 20 20 19 20 20 21 20 18 18 19 19 18 18 19 19 19 19 20 20 21 21 22 22 22 22 22 23
27 27 27 27 26 26 28 28 26 26 27 27 25 24 24 24 23 22 22 23 23 22 23 23 22 21 21 21 21 21 20 21 21 22 22 23 23 24 24 24 24 24 25 25
29 30 29 29 29 29 30 30 29 29 28 29 28 27 25 25 24 24 25 26 26 26 26 26 24 23 24 24 24 23 23 23 23 23 24 24 25 25 25 26 26 27 27 27
31 32 32 31 31 30 31 31 31 30 30 31 30 29 28 27 27 27 27 27 28 28 27 27 26 25 25 26 26 26 25 24 24 24 25 26 26 27 28 28 28 28 29 30
32 32 33 33 33 34 31 30 31 31 31 30 31 30 30 29 29 28 27 28 29 28 28 28 27 27 27 27 27 27 27 26 25 25 26 26 27 28 29 29 29 30 31 30
33 33 33 34 34 34 32 31 31 31 32 30 30 29 29 29 30 29 29 30 30 30 29 29 30 29 29 28 27 28 28 28 27 27 28 28 29 29 30 31 31 32 32 32
35 35 34 34 35 35 32 31 30 31 32 31 31 31 31 31 31 30 30 31 30 30 30 30 30 30 30 29 29 29 29 30 30 30 30 30 30 31 31 32 32 33 34 34
35 36 35 35 35 34 32 31 30 31 30 30 31 33 32 31 31 31 31 31 31 31 31 30 30 31 30 30 30 30 31 31 32 32 32 32 33 33 33 33 34 34 35 35
36 37 37 36 35 35 33 32 32 31 30 30 30 32 32 32 31 31 31 31 31 32 32 31 31 31 31 31 31 31 32 33 33 34 34 34 35 35 35 36 36 36 36 37
36 36 36 36 36 34 34 33 33 32 31 30 31 32 32 32 31 31 30 31 32 32 32 32 32 32 31 32 32 32 33 34 35 35 35 36 36 36 36 37 37 37 38 38
36 37 37 37 37 35 34 34 34 33 32 32 32 33 33 33 31 31 32 31 31 32 33 34 33 32 32 31 32 32 33 34 35 35 35 35 36 36 36 36 37 37 37 37
34 36 38 38 37 36 35 35 35 35 33 32 32 33 32 32 32 31 32 32 32 34 33 33 33 32 32 33 34 34 34 35 35 35 35 35 36 35 35 35 36 36 37 37
34 36 37 38 37 37 36 35 35 35 35 33 33 33 33 33 33 31 31 32 32 32 33 34 35 35 35 34 34 34 34 35 35 35 35 35 36 36 36 35 35 35 35 36
Wind_Direction
191 180 166 167 195 241 322 274 265 325 324 327 334 332 343 349 356 6 12 17 25 36 40 39 35 37 42 43 41 39 39 39 40 38 35 34 29 23 23 16 10 8 355 350
197 186 174 184 204 227 251 249 262 273 291 308 307 311 331 339 342 354 1 4 7 21 34 34 32 27 26 28 24 26 28 25 23 23 15 7 2 3 355 353 4 352 341 338
203 195 189 195 207 225 246 243 259 264 285 301 302 304 319 329 328 343 355 348 353 4 10 15 16 12 17 21 23 18 20 12 2 2 355 348 352 350 346 345 339 329 331 326
206 207 208 210 220 226 248 258 262 263 266 288 292 300 308 318 320 328 337 342 353 344 348 359 359 360 5 11 12 2 5 8 5 358 351 340 341 343 334 328 325 323 324 320
213 218 223 218 220 234 252 261 259 255 256 273 286 294 305 308 320 322 320 335 335 326 327 330 329 329 331 345 349 353 351 348 345 338 333 331 324 324 320 315 313 307 310 317
216 220 225 225 221 241 257 264 261 252 260 270 280 285 294 302 311 312 318 327 321 315 317 312 305 305 315 319 334 338 334 329 326 324 317 311 309 309 306 305 303 303 306 310
220 223 225 226 233 238 248 252 254 246 256 267 275 285 295 294 303 298 305 312 306 303 300 290 289 289 301 310 319 324 324 316 310 307 308 306 304 300 300 299 299 298 302 303
225 226 231 234 238 243 243 253 258 258 263 267 280 293 294 295 294 294 298 303 300 295 298 289 293 297 294 299 305 310 311 310 305 301 301 297 295 296 296 296 294 292 294 300
230 226 232 234 233 243 243 249 259 263 264 269 277 288 288 287 287 291 297 301 299 299 297 300 296 300 302 298 297 300 303 302 301 298 297 297 292 292 293 295 292 294 293 296
240 238 232 234 236 243 248 250 251 257 261 265 268 277 283 288 287 290 299 304 305 306 305 307 302 299 299 301 296 296 297 296 299 298 298 297 295 292 294 296 295 294 294 294
237 242 237 237 237 240 246 248 250 257 264 267 269 273 281 288 288 294 301 305 303 305 304 302 299 298 294 295 295 297 297 296 296 297 296 294 293 295 292 294 295 292 292 295
235 241 241 237 238 242 243 245 246 254 258 262 268 272 275 278 284 289 293 297 300 301 302 300 298 297 291 287 290 294 294 295 296 297 295 293 292 292 293 292 294 293 291 291
234 239 242 238 236 237 241 244 246 254 258 262 268 272 273 275 279 284 287 290 294 297 295 298 297 296 296 291 290 291 291 293 294 294 292 292 292 292 293 294 293 295 293 292
237 241 242 241 237 237 240 244 247 252 256 260 265 268 269 274 277 281 281 285 290 291 292 296 296 298 297 292 290 289 288 289 288 287 287 288 289 290 290 291 292 293 293 294
236 240 242 244 243 242 244 246 249 252 256 261 266 268 268 271 275 277 278 282 286 288 291 293 295 295 296 294 290 288 286 286 285 285 286 287 286 288 289 289 290 290 289 292
238 241 242 244 246 247 246 248 250 253 257 260 265 267 270 269 272 275 279 282 285 289 290 290 292 292 292 290 288 288 286 286 285 285 285 287 288 287 289 289 288 289 290 291
241 244 243 244 247 250 250 250 251 253 255 259 262 266 268 270 273 276 278 280 282 286 289 290 289 290 291 288 288 287 286 286 286 285 285 285 287 287 288 289 288 289 289 288
243 244 245 246 248 251 254 253 253 253 255 258 260 264 268 272 274 276 276 278 282 284 286 287 287 287 287 287 288 286 286 286 285 285 286 287 287 287 287 289 289 290 291 291
243 245 246 248 250 254 255 254 254 256 256 257 261 264 268 271 273 273 274 276 280 282 284 285 284 284 284 285 286 286 287 286 286 286 286 287 288 287 288 288 289 291 292 293
242 246 248 249 252 254 256 256 257 258 258 258 261 264 266 269 271 273 274 276 279 281 283 285 285 285 284 285 286 287 286 286 286 286 286 287 287 286 287 287 289 291 292 293
242 246 249 251 254 255 257 258 257 258 261 263 263 264 266 270 273 276 277 277 277 280 284 285 285 284 283 282 284 285 285 284 284 285 285 286 286 285 285 287 289 290 291 292
244 246 248 250 253 256 258 259 258 260 263 263 263 264 267 269 273 277 278 278 278 280 280 282 284 284 284 283 283 283 283 283 283 284 285 285 286 286 286 287 289 290 290 292
244 245 248 250 253 257 258 259 260 261 262 263 265 266 269 270 272 274 277 277 279 279 280 281 282 283 284 285 284 282 283 282 283 283 284 286 286 286 287 288 288 289 290 291
245 246 247 250 252 255 256 258 259 261 263 264 266 267 270 271 273 274 277 277 277 277 280 281 283 284 284 284 284 283 284 284 284 285 285 285 285 285 286 287 287 288 289 290
246 246 247 249 252 254 255 257 259 261 264 263 264 266 270 272 273 274 276 275 274 276 279 281 281 283 283 282 283 285 285 285 285 285 286 285 285 286 287 287 287 287 288 289
246 247 248 248 251 253 255 258 261 262 264 265 265 266 267 269 270 273 274 274 275 277 278 279 280 282 281 281 283 285 286 286 286 286 287 288 288 288 288 288 288 289 289 289